This demonstration page uses our WeatherBlox Daily Observations layout. Learn more.

Hourly Observations for July 25, 2015

Temp ( °F °C ) Dew Point ( °F °C ) Humidity (%) Winds ( mph kmh ) Pressure ( in mb ) Visibility ( mi km ) Precip ( " mm )
12:15 am 00:15 Clear 69 20.5 65 18.6 89 89 E 6 9 29.91 1013 10 16.0934 0 0
12:35 am 00:35 Clear 69 20.8 66 18.8 88 88 E 9 15 29.91 1013 10 16.0934 0 0
12:55 am 00:55 Clear 70 21.1 66 19 88 88 ESE 7 11 29.91 1013 10 16.0934 0 0
1:15 am 01:15 Clear 70 21.1 66 18.8 87 87 E 12 19 29.91 1013 10 16.0934 0 0
1:35 am 01:35 Clear 71 21.4 65 18.3 83 83 E 12 19 29.88 1012 10 16.0934 0 0
1:55 am 01:55 Partly Cloudy with Light Rain 70 21.1 65 18.2 84 84 ESE 10 17 29.91 1013 10 16.0934 0 0
2:15 am 02:15 Partly Cloudy 69 20.8 65 18.3 86 86 ESE 8 13 29.91 1013 10 16.0934 0 0
2:35 am 02:35 Partly Cloudy 69 20.8 65 18.2 85 85 E 9 15 29.91 1013 10 16.0934 0 0
2:55 am 02:55 Clear 70 21 64 17.8 82 82 E 12 19 29.88 1012 10 16.0934 0 0
3:15 am 03:15 Partly Cloudy 71 21.5 64 17.5 78 78 E 13 20 29.88 1012 10 16.0934 0 0
3:35 am 03:35 Partly Cloudy 72 22 63 17 73 73 ENE 8 13 29.88 1012 10 16.0934 0 0
3:55 am 03:55 Clear 71 21.6 63 17.1 76 76 ENE 6 9 29.85 1011 10 16.0934 0 0
4:15 am 04:15 Clear 71 21.4 64 17.5 79 79 E 7 11 29.85 1011 10 16.0934 0 0
4:35 am 04:35 Partly Cloudy 71 21.7 63 17 75 75 E 7 11 29.85 1011 10 16.0934 0 0
4:55 am 04:55 Mostly Cloudy 71 21.5 63 17.3 77 77 E 5 7 29.85 1011 10 16.0934 0 0
5:15 am 05:15 Partly Cloudy 70 21.2 64 17.6 80 80 Calm 29.85 1011 10 16.0934 0 0
5:35 am 05:35 Partly Cloudy 69 20.8 65 18.1 85 85 WSW 5 7 29.88 1012 10 16.0934 0 0
5:55 am 05:55 Partly Cloudy 69 20.6 65 18.4 87 87 Calm 29.88 1012 10 16.0934 0 0
6:15 am 06:15 Clear 68 20.1 65 18.5 91 91 ESE 5 7 29.88 1012 10 16.0934 0 0
6:35 am 06:35 Sunny 69 20.6 65 18.2 86 86 Calm 29.88 1012 10 16.0934 0 0
6:55 am 06:55 Sunny 69 20.6 65 18.2 86 86 ESE 8 13 29.88 1012 10 16.0934 0 0
7:15 am 07:15 Partly Cloudy with Light Rain 69 20.6 65 18.4 87 87 SE 13 20 29.88 1012 10 16.0934 0 0
7:35 am 07:35 Mostly Cloudy with Light Rain 69 20.7 66 18.7 88 88 SE 14 22 29.88 1012 10 16.0934 0 0
7:55 am 07:55 Partly Cloudy 70 21 66 18.9 88 88 SE 12 19 29.88 1012 10 16.0934 0 0
8:15 am 08:15 Sunny 70 21.2 67 19.2 88 88 SE 10 17 29.88 1012 10 16.0934 0 0
8:35 am 08:35 Sunny 73 22.5 67 19.6 84 84 SE 12 19 29.85 1011 10 16.0934 0 0
8:55 am 08:55 Sunny 74 23.5 68 19.8 80 80 SSE 15 24 29.85 1011 10 16.0934 0 0
9:15 am 09:15 Sunny 76 24.4 68 19.9 76 76 SSE 13 20 29.85 1011 10 16.0934 0 0
9:35 am 09:35 Sunny with Nearby Thunderstorms 76 24.6 67 19.6 74 74 SSE 14 22 29.85 1011 10 16.0934 0 0
9:55 am 09:55 Sunny 75 24 67 19.5 76 76 SSE 13 20 29.85 1011 10 16.0934 0 0
10:15 am 10:15 Partly Cloudy 74 23.3 67 19.6 80 80 SSE 6 9 29.91 1013 10 16.0934 0 0
10:35 am 10:35 Cloudy 74 23.2 68 19.8 81 81 SE 7 11 29.91 1013 10 16.0934 0 0
10:55 am 10:55 Partly Cloudy 75 23.8 68 19.9 79 79 ESE 7 11 29.88 1012 10 16.0934 0 0
11:15 am 11:15 Sunny 74 23.5 67 19.6 79 79 SE 8 13 29.88 1012 10 16.0934 0 0
11:35 am 11:35 Sunny with Light Rain 74 23.6 68 19.9 80 80 ESE 7 11 29.88 1012 10 16.0934 0 0
11:55 am 11:55 Sunny 75 24 67 19.7 77 77 E 10 17 29.88 1012 10 16.0934 0 0
12:15 pm 12:15 Sunny with Nearby Thunderstorms 76 24.2 67 19.7 76 76 ESE 8 13 29.88 1012 10 16.0934 0 0
12:35 pm 12:35 Sunny 75 24 66 19.1 74 74 E 10 17 29.88 1012 10 16.0934 0 0
12:55 pm 12:55 Sunny 76 24.2 67 19.5 75 75 E 10 17 29.88 1012 10 16.0934 0 0
1:15 pm 13:15 Sunny 76 24.4 66 19.1 72 72 ESE 10 17 29.88 1012 10 16.0934 0 0
1:35 pm 13:35 Sunny 77 25 67 19.3 71 71 ESE 10 17 29.85 1011 10 16.0934 0 0
1:55 pm 13:55 Partly Cloudy 77 25.2 67 19.6 71 71 E 14 22 29.85 1011 10 16.0934 0 0
2:15 pm 14:15 Partly Cloudy 77 24.9 67 19.5 72 72 ESE 10 17 29.85 1011 10 16.0934 0 0
2:35 pm 14:35 Sunny 77 25.2 67 19.4 70 70 ESE 9 15 29.85 1011 10 16.0934 0 0
2:55 pm 14:55 Sunny 78 25.8 67 19.5 68 68 E 10 17 29.85 1011 10 16.0934 0 0
3:15 pm 15:15 Partly Cloudy 80 26.5 67 19.6 66 66 E 8 13 29.83 1010 10 16.0934 0 0
3:35 pm 15:35 Partly Cloudy 79 25.9 67 19.6 68 68 SE 5 7 29.85 1011 10 16.0934 0 0
3:55 pm 15:55 Partly Cloudy 80 26.4 67 19.5 66 66 SSE 6 9 29.85 1011 10 16.0934 0 0
4:15 pm 16:15 Sunny 80 26.7 67 19.7 66 66 SE 7 11 29.83 1010 10 16.0934 0 0
4:35 pm 16:35 Sunny 80 26.8 68 20 66 66 SE 8 13 29.83 1010 10 16.0934 0 0
4:55 pm 16:55 Sunny 80 26.8 68 19.8 66 66 SE 8 13 29.8 1009 10 16.0934 0 0
5:15 pm 17:15 Sunny 80 26.8 68 19.9 66 66 ESE 5 7 29.8 1009 10 16.0934 0 0
5:35 pm 17:35 Sunny 80 26.8 69 20.3 68 68 ESE 6 9 29.8 1009 10 16.0934 0 0
5:55 pm 17:55 Sunny 81 27.1 69 20.5 67 67 E 7 11 29.8 1009 10 16.0934 0 0
6:15 pm 18:15 Sunny 80 26.7 68 20.1 67 67 ESE 5 7 29.8 1009 10 16.0934 0 0
6:35 pm 18:35 Sunny 79 26.1 68 20.2 70 70 ESE 6 9 29.83 1010 10 16.0934 0 0
6:55 pm 18:55 Sunny 79 26.2 69 20.3 70 70 ESE 8 13 29.83 1010 10 16.0934 0 0
7:15 pm 19:15 Sunny 78 25.6 69 20.5 73 73 ESE 3 6 29.83 1010 10 16.0934 0 0
7:35 pm 19:35 Sunny 78 25.4 70 21 77 77 E 5 7 29.83 1010 10 16.0934 0 0
7:55 pm 19:55 Sunny 76 24.7 70 21.1 80 80 Calm 29.83 1010 10 16.0934 0 0
8:15 pm 20:15 Sunny 76 24.5 70 21.1 81 81 Calm 29.8 1009 10 16.0934 0 0
8:35 pm 20:35 Sunny 75 24 70 21.3 85 85 Calm 29.83 1010 10 16.0934 0 0
8:55 pm 20:55 Sunny 74 23.5 70 21.2 87 87 Calm 29.83 1010 10 16.0934 0 0
9:15 pm 21:15 Clear 73 22.7 69 20.8 89 89 E 3 6 29.83 1010 10 16.0934 0 0
9:35 pm 21:35 Clear 72 22.1 69 20.5 91 91 E 5 7 29.85 1011 10 16.0934 0 0
9:55 pm 21:55 Clear 71 21.6 68 20 91 91 E 5 7 29.85 1011 10 16.0934 0 0
10:15 pm 22:15 Clear 71 21.9 68 20.2 90 90 ESE 3 6 29.85 1011 10 16.0934 0 0
10:35 pm 22:35 Clear 71 21.5 68 20.1 92 92 Calm 29.85 1011 10 16.0934 0 0
10:55 pm 22:55 Clear 71 21.6 68 20.2 92 92 Calm 29.85 1011 10 16.0934 0 0
11:15 pm 23:15 Clear 70 21 67 19.6 92 92 Calm 29.83 1010 7 11.26538 0 0
11:35 pm 23:35 Clear 70 21.1 68 19.9 93 93 Calm 29.83 1010 10 16.0934 0 0
11:55 pm 23:55 Clear with Mist and Fog 70 21 68 19.9 93 93 Calm 29.83 1010 5 8.0467 0 0

Powered by AerisWeather